Погода в Резоватове

Россия / Республика Мордовия     54°37′36″N   45°28′26″E
темп.,
°C
ветер,
м/с
пор.,
м/с
влажн.,
%
обл.,
%
осадки,
мм/ч
давл.,
гПа
погр.,
м
23 апреля, пт
пт2300:00+6ю22795 0.0 102311
03:00+6ююв2282100 0.0 102341
06:00+7ююв2379100 0.0 102363
09:00+11ююв456218 0.0 1023320
12:00+15ю324247 0.0 10221983
15:00+16ю3538100 0.0 10202324
18:00+13юв3760100 0.0 1019234
21:00+11юв3670100 0.0 1018141
24 апреля, сб
сб2400:00+10юв3976100 0.1 1017255
03:00+8юв3781100 0.1 1015174
06:00+8юв2581100 0.0 1014193
09:00+12юв45615 0.0 1012765
12:00+15ююв564996 0.4 10091906
15:00+13ю5762100 2.4 10071074
18:00+12ююз5970100 1.8 1005790
21:00+7зюз71091100 4.0 1006753
25 апреля, вс
вс2500:00+5зюз71172100 0.8 10061122
03:00+5зюз61077100 0.9 1006998
06:00+3юз611795 0.1 1007708
09:00+5зюз787175 0.1 10081227
12:00+4зюз71091100 0.3 1010819
15:00+9зюз8124799 0.5 10112376
18:00+6зюз6115795 0.4 10131388
21:00+4юз410693 0.4 1014326
26 апреля, пн
пн2600:00+3ююз4117690 0.0 1014281
03:00+3ююз5137398 0.0 1014618
06:00+3юз6118473 0.0 1015750
09:00+5юз576595 0.0 10151170
12:00+9юз5843100 0.1 10142220
15:00+10юз674492 0.1 10131859
18:00+8ююз465953 0.0 1013823
21:00+5юз2277100 0.0 101220
27 апреля, вт
вт2700:00+5зсз248096 0.0 1011120
03:00+5всв1188100 0.2 100974
06:00+5в2587100 0.2 1008294
09:00+9ю6960100 0.3 10051394
12:00+6юз7108598 0.8 1004869
15:00+4з5995100 1.1 1007590
18:00+6зюз3569100 0.2 1006828
21:00+2юз399145 0.2 1007260